Preview of NWS' New Version of Forecast
This preview is not operational and should not be used for support decisions.

Regional Weather Roundup (RWR)

Issued by National Weather Service (NWS)

                            
000
ASPQ40 PGUM 190510
RWRPQ 
WEATHER ROUNDUP FOR THE MARIANAS AND MICRONESIA
NATIONAL WEATHER SERVICE TIYAN GU
300 PM CHST MON AUG 19 2019

GUZ001>004-190600-
MARIANA ISLANDS-
  
CITY           SKY/WX    TMP DP  RH WIND       PRES   REMARKS
GUAM AIRPORT   LGT RAIN  84  75  74 SE8       29.75F HX  92           
ANDERSEN AFB   PTSUNNY   86  75  70 S14       29.76F HX  95           
ROTA AIRPORT   LGT RAIN  82  73  74 SE14      29.73                   
TINIAN AP      PTSUNNY   90  79  70 SE9       29.73F HX 105           
SAIPAN AP      MOSUNNY   84  81  89 SE13      29.75F HX  98           

$$

PMZ161-190600-
REPUBLIC OF PALAU-
  
CITY           SKY/WX    TMP DP  RH WIND       PRES   REMARKS
KOROR AP       HVY RAIN  77  73  88 W9G17     29.75F                  
KOROR WSO      NOT AVBL                                               

$$

PMZ171>174-190600-
FEDERATED STATES OF MICRONESIA-
  
CITY           SKY/WX    TMP DP  RH WIND       PRES   REMARKS
YAP AIRPORT    CLOUDY    84  77  79 W8        29.74F HX  94           
CHUUK AP       CLOUDY    88  81  79 NW7       29.75F HX 105           
POHNPEI AP     NOT AVBL                                               
POHNPEI WSO    CLOUDY    86  79  79 NW3       29.79S HX  99           
KOSRAE AP      NOT AVBL                                               

$$

PMZ181-190600-
REPUBLIC OF THE MARSHALL ISLANDS-
  
CITY           SKY/WX    TMP DP  RH WIND       PRES   REMARKS
KWAJALEIN AP   MOSUNNY   84  77  79 SW6       29.76S HX  94           
MAJURO AP      PTSUNNY   86  79  79 SW12      29.75F HX  99           
MAJURO WSO     PTSUNNY   86  77  74 W13       29.74F HX  97           

$$